Weather History for PHNL - February, 2014

Change the Weather History Date:

Monday, February 24, 2014

  Actual Average Record
Temperature  
Mean Temperature 76 °F 73 °F  
Max Temperature 84 °F 80 °F 86 °F (2004)
Min Temperature 67 °F 66 °F 54 °F (1891)
Degree Days  
Heating Degree Days 0 0  
Month to date heating degree days 0 0  
Since 1 July heating degree days 0 0  
Cooling Degree Days 11 8  
Month to date cooling degree days 237 192  
Year to date cooling degree days 483 446  
Growing Degree Days 23 (Base 50)    
Moisture  
Dew Point 61 °F    
Average Humidity 67    
Maximum Humidity 87    
Minimum Humidity 46    
Precipitation  
Precipitation 0.00 in 0.07 in 1.73 in (1955)
Month to date precipitation 1.22 1.68  
Year to date precipitation 3.67 3.99  
Snow  
Snow 0.00 in - - ()
Month to date snowfall 0.0  
Since 1 July snowfall 0.0  
Snow Depth 0.00 in    
Sea Level Pressure  
Sea Level Pressure 29.95 in    
Wind  
Wind Speed 7 mph (North)    
Max Wind Speed 15 mph    
Max Gust Speed 21 mph    
Visibility 10 miles    
Events      
T = Trace of Precipitation, MM = Missing Value Source: NWS Daily Summary

Daily Weather History Graph

Daily Weather History Graph

Search for Another Location

Airport or City:

Trip Planner

Search our weather history database for the weather conditions in past years. The results will help you decide how hot, cold, wet, or windy it might be!

Date:

Astronomy

Feb. 24, 2014 Rise Set
Actual Time 6:55 AM HST 6:34 PM HST
Civil Twilight 6:33 AM HST 6:56 PM HST
Nautical Twilight 6:07 AM HST 7:22 PM HST
Astronomical Twilight 5:41 AM HST 7:48 PM HST
Moon 2:43 AM HST (2/24) 2:08 PM HST (2/24)
Length of Visible Light 12h 23m
Length of Day
11h 38m
Waning Crescent, 26% of the Moon is Illuminated
Feb 24
Waning Crescent
Feb 28
New
Mar 8
First Quarter
Mar 16
Full
Mar 23
Last Quarter

Hourly Weather History & Observations

Time (HST) Temp. Heat Index Dew Point Humidity Pressure Visibility Wind Dir Wind Speed Gust Speed Precip Events Conditions
12:53 AM 72.0 °F - 64.0 °F 76% 29.99 in 10.0 mi North 5.8 mph - N/A   Scattered Clouds
1:53 AM 71.1 °F - 64.9 °F 81% 29.97 in 10.0 mi NW 8.1 mph - N/A   Scattered Clouds
2:53 AM 70.0 °F - 64.0 °F 81% 29.96 in 10.0 mi NNW 6.9 mph - N/A   Partly Cloudy
3:53 AM 69.1 °F - 63.0 °F 81% 29.95 in 10.0 mi NNW 5.8 mph - N/A   Scattered Clouds
4:53 AM 68.0 °F - 62.1 °F 81% 29.95 in 10.0 mi NNW 6.9 mph - N/A   Partly Cloudy
5:53 AM 66.9 °F - 62.1 °F 84% 29.96 in 10.0 mi North 4.6 mph - N/A   Scattered Clouds
6:53 AM 69.1 °F - 62.1 °F 78% 29.98 in 10.0 mi NW 4.6 mph - N/A   Scattered Clouds
7:53 AM 71.1 °F - 63.0 °F 75% 29.99 in 10.0 mi Variable 5.8 mph - N/A   Scattered Clouds
8:53 AM 75.0 °F - 62.1 °F 64% 30.01 in 10.0 mi North 11.5 mph - N/A   Scattered Clouds
9:53 AM 77.0 °F - 59.0 °F 54% 30.02 in 10.0 mi NNE 9.2 mph 17.3 mph N/A   Scattered Clouds
10:53 AM 79.0 °F - 59.0 °F 50% 30.01 in 10.0 mi NNE 5.8 mph - N/A   Scattered Clouds
11:53 AM 82.0 °F 82.1 °F 59.0 °F 45% 29.98 in 10.0 mi North 9.2 mph - N/A   Scattered Clouds
12:53 PM 82.0 °F 82.4 °F 60.1 °F 47% 29.95 in 10.0 mi Variable 6.9 mph 16.1 mph N/A   Scattered Clouds
1:53 PM 79.0 °F - 62.1 °F 56% 29.92 in 10.0 mi SSW 11.5 mph - N/A   Scattered Clouds
2:53 PM 79.0 °F - 62.1 °F 56% 29.90 in 10.0 mi SSW 11.5 mph - N/A   Scattered Clouds
3:53 PM 79.0 °F - 61.0 °F 54% 29.89 in 10.0 mi Variable 4.6 mph - N/A   Scattered Clouds
4:53 PM 78.1 °F - 59.0 °F 52% 29.90 in 10.0 mi East 4.6 mph - N/A   Scattered Clouds
5:53 PM 77.0 °F - 59.0 °F 54% 29.91 in 10.0 mi NE 9.2 mph - N/A   Partly Cloudy
6:53 PM 73.0 °F - 57.9 °F 59% 29.92 in 10.0 mi NNE 5.8 mph - N/A   Partly Cloudy
7:53 PM 72.0 °F - 59.0 °F 64% 29.94 in 10.0 mi North 10.4 mph - N/A   Partly Cloudy
8:53 PM 71.1 °F - 57.9 °F 63% 29.95 in 10.0 mi North 9.2 mph - N/A   Partly Cloudy
9:53 PM 71.1 °F - 57.9 °F 63% 29.95 in 10.0 mi North 3.5 mph - N/A   Partly Cloudy
10:53 PM 70.0 °F - 60.1 °F 71% 29.95 in 10.0 mi NNW 8.1 mph - N/A   Partly Cloudy
11:53 PM 69.1 °F - 61.0 °F 75% 29.94 in 10.0 mi WNW 5.8 mph - N/A   Partly Cloudy